Find Kosmos-381

NORAD ID: 4783 Int'l Des: 1970-102 Owner: OKB10 Country: SU operational
LEOCIRCULAR

Live Position

Loading 3D Globe...

About Kosmos-381

Description loading...

Upcoming Passes

Passes for default location (London). Set your location on the main map for personalized predictions.

Altitude History

Loading altitude history...

Two-Line Element Set

1 4783U 70102A 26105.04026676 .00000024 00000-0 48691-4 0 9995
2 4783 74.0298 116.2173 0030128 151.4602 208.8175 13.75040908777478
Epoch: Apr 15, 2026 • Age: 8 hours

Current Status

Altitude 975.5 km
Velocity 7.37 km/s
Sub-Earth Point -21.75°S, 35.3°W
Type other

Most Searched